Time,TemperatureF,DewpointF,PressureIn,WindDirection,WindDirectionDegrees,WindSpeedMPH,WindSpeedGustMPH,Humidity,HourlyPrecipIn,Conditions,Clouds,dailyrainin,SoftwareType,DateUTC
2013-05-21 00:00:00,49.4,49.4,29.86,WNW,288,0.0,0.0,100,0.00,,,0.00,Wunderground v.1.12,2013-05-21 07:00:00,
2013-05-21 00:10:00,48.9,48.9,29.86,WNW,288,0.0,0.0,100,0.00,,,0.00,Wunderground v.1.12,2013-05-21 07:10:00,
2013-05-21 00:20:00,48.3,48.3,29.86,WNW,288,0.0,0.0,100,0.00,,,0.00,Wunderground v.1.12,2013-05-21 07:20:00,
2013-05-21 00:30:00,47.7,47.7,29.86,WNW,300,0.0,0.0,100,0.00,,,0.00,Wunderground v.1.12,2013-05-21 07:30:00,
2013-05-21 00:40:00,46.8,46.8,29.85,WNW,300,0.0,0.0,100,0.00,,,0.00,Wunderground v.1.12,2013-05-21 07:40:00,
2013-05-21 00:50:00,46.7,46.7,29.85,WNW,300,0.0,0.0,100,0.00,,,0.00,Wunderground v.1.12,2013-05-21 07:50:00,
2013-05-21 01:00:00,46.4,46.4,29.85,WNW,302,0.0,1.0,100,0.00,,,0.00,Wunderground v.1.12,2013-05-21 08:00:00,
2013-05-21 01:10:00,46.0,46.0,29.84,NW,308,0.0,0.0,100,0.00,,,0.00,Wunderground v.1.12,2013-05-21 08:10:00,
2013-05-21 01:20:00,45.7,45.7,29.85,NW,309,0.0,0.0,100,0.00,,,0.00,Wunderground v.1.12,2013-05-21 08:20:00,
2013-05-21 01:30:00,45.5,45.5,29.85,NW,308,0.0,0.0,100,0.00,,,0.00,Wunderground v.1.12,2013-05-21 08:30:00,
2013-05-21 01:40:00,45.1,45.1,29.85,NW,308,0.0,0.0,100,0.00,,,0.00,Wunderground v.1.12,2013-05-21 08:40:00,
2013-05-21 01:50:00,44.9,44.9,29.85,NW,308,0.0,0.0,100,0.00,,,0.00,Wunderground v.1.12,2013-05-21 08:50:00,
2013-05-21 02:00:00,44.9,44.9,29.85,NW,313,0.0,0.0,100,0.00,,,0.00,Wunderground v.1.12,2013-05-21 09:00:00,
2013-05-21 02:10:00,45.1,45.1,29.85,NNW,327,0.0,0.0,100,0.00,,,0.00,Wunderground v.1.12,2013-05-21 09:10:00,
2013-05-21 02:20:00,45.2,45.2,29.84,NW,326,0.0,0.0,100,0.00,,,0.00,Wunderground v.1.12,2013-05-21 09:20:00,
2013-05-21 02:30:00,45.5,45.5,29.84,NNW,327,0.0,2.0,100,0.00,,,0.00,Wunderground v.1.12,2013-05-21 09:30:00,
2013-05-21 02:40:00,45.5,45.5,29.84,NNW,342,0.0,0.0,100,0.00,,,0.00,Wunderground v.1.12,2013-05-21 09:40:00,
2013-05-21 02:50:00,46.2,46.2,29.84,ENE,63,1.0,1.0,100,0.00,,,0.00,Wunderground v.1.12,2013-05-21 09:50:00,
2013-05-21 03:00:00,46.8,46.8,29.84,ENE,64,0.0,0.0,100,0.00,,,0.00,Wunderground v.1.12,2013-05-21 10:00:00,
2013-05-21 03:10:00,47.1,47.1,29.84,ENE,58,1.0,3.0,100,0.00,,,0.00,Wunderground v.1.12,2013-05-21 10:10:00,
2013-05-21 03:20:00,47.6,47.6,29.83,ENE,63,0.0,0.0,100,0.00,,,0.00,Wunderground v.1.12,2013-05-21 10:20:00,
2013-05-21 03:30:00,47.6,47.6,29.83,ENE,63,0.0,0.0,100,0.00,,,0.00,Wunderground v.1.12,2013-05-21 10:30:00,
2013-05-21 03:40:00,47.6,47.6,29.83,ENE,63,0.0,0.0,100,0.00,,,0.00,Wunderground v.1.12,2013-05-21 10:40:00,
2013-05-21 03:50:00,48.5,48.5,29.83,WNW,288,1.0,2.0,100,0.00,,,0.00,Wunderground v.1.12,2013-05-21 10:50:00,
2013-05-21 04:00:00,49.4,49.4,29.83,WNW,284,2.0,2.0,100,0.00,,,0.00,Wunderground v.1.12,2013-05-21 11:00:00,
2013-05-21 04:10:00,49.8,49.8,29.83,West,277,1.0,1.0,100,0.00,,,0.00,Wunderground v.1.12,2013-05-21 11:10:00,
2013-05-21 04:20:00,50.4,50.4,29.84,NW,309,4.0,5.0,100,0.00,,,0.00,Wunderground v.1.12,2013-05-21 11:20:00,
2013-05-21 04:30:00,50.4,50.4,29.84,WNW,294,3.0,5.0,100,0.00,,,0.00,Wunderground v.1.12,2013-05-21 11:30:00,
2013-05-21 04:40:00,50.5,50.5,29.84,West,267,3.0,3.0,100,0.00,,,0.00,Wunderground v.1.12,2013-05-21 11:40:00,
2013-05-21 04:50:00,50.5,50.5,29.84,SSW,192,2.0,5.0,100,0.00,,,0.00,Wunderground v.1.12,2013-05-21 11:50:00,
2013-05-21 05:00:00,50.4,50.4,29.84,SSW,195,4.0,4.0,100,0.00,,,0.00,Wunderground v.1.12,2013-05-21 12:00:00,
2013-05-21 05:10:00,50.1,50.1,29.85,West,279,3.0,5.0,100,0.00,,,0.00,Wunderground v.1.12,2013-05-21 12:10:00,
2013-05-21 05:20:00,50.2,50.2,29.85,WNW,293,5.0,5.0,100,0.00,,,0.00,Wunderground v.1.12,2013-05-21 12:20:00,
2013-05-21 05:30:00,50.2,50.2,29.85,SW,215,4.0,4.0,100,0.00,,,0.00,Wunderground v.1.12,2013-05-21 12:30:00,
2013-05-21 05:40:00,50.2,50.2,29.85,West,275,3.0,3.0,100,0.00,,,0.00,Wunderground v.1.12,2013-05-21 12:40:00,
2013-05-21 05:50:00,50.5,50.5,29.85,WNW,284,3.0,5.0,100,0.00,,,0.00,Wunderground v.1.12,2013-05-21 12:50:00,
2013-05-21 06:00:00,50.7,50.7,29.85,West,279,3.0,3.0,100,0.00,,,0.00,Wunderground v.1.12,2013-05-21 13:00:00,
2013-05-21 06:10:00,50.8,50.8,29.85,West,281,1.0,1.0,100,0.00,,,0.00,Wunderground v.1.12,2013-05-21 13:10:00,
2013-05-21 06:20:00,51.1,51.1,29.85,SSW,211,2.0,2.0,100,0.00,,,0.00,Wunderground v.1.12,2013-05-21 13:20:00,
2013-05-21 06:30:00,51.6,51.6,29.85,West,261,3.0,6.0,100,0.00,,,0.00,Wunderground v.1.12,2013-05-21 13:30:00,
2013-05-21 06:40:00,52.0,52.0,29.86,SSW,200,3.0,5.0,100,0.00,,,0.00,Wunderground v.1.12,2013-05-21 13:40:00,
2013-05-21 06:50:00,52.5,52.5,29.86,WNW,298,3.0,4.0,100,0.00,,,0.00,Wunderground v.1.12,2013-05-21 13:50:00,
2013-05-21 07:00:00,52.9,52.9,29.86,WNW,287,3.0,3.0,100,0.00,,,0.00,Wunderground v.1.12,2013-05-21 14:00:00,
2013-05-21 07:10:00,53.2,53.2,29.87,WNW,291,5.0,10.0,100,0.00,,,0.00,Wunderground v.1.12,2013-05-21 14:10:00,
2013-05-21 07:20:00,53.3,53.3,29.87,West,271,4.0,4.0,100,0.00,,,0.00,Wunderground v.1.12,2013-05-21 14:20:00,
2013-05-21 07:30:00,53.5,53.5,29.87,WNW,294,3.0,3.0,100,0.00,,,0.00,Wunderground v.1.12,2013-05-21 14:30:00,
2013-05-21 07:40:00,54.1,54.1,29.87,West,278,5.0,5.0,100,0.00,,,0.00,Wunderground v.1.12,2013-05-21 14:40:00,
2013-05-21 07:50:00,54.5,54.5,29.88,WNW,298,6.0,6.0,100,0.00,,,0.00,Wunderground v.1.12,2013-05-21 14:50:00,
2013-05-21 08:00:00,55.1,55.1,29.88,WNW,292,7.0,7.0,100,0.00,,,0.00,Wunderground v.1.12,2013-05-21 15:00:00,
2013-05-21 08:10:00,56.0,56.0,29.88,WNW,286,4.0,8.0,100,0.00,,,0.00,Wunderground v.1.12,2013-05-21 15:10:00,
2013-05-21 08:20:00,56.5,56.5,29.88,SW,232,7.0,12.0,100,0.00,,,0.00,Wunderground v.1.12,2013-05-21 15:20:00,
2013-05-21 08:30:00,56.3,56.3,29.88,WNW,284,7.0,7.0,100,0.00,,,0.00,Wunderground v.1.12,2013-05-21 15:30:00,
2013-05-21 08:40:00,56.3,56.3,29.89,WNW,291,8.0,8.0,100,0.00,,,0.00,Wunderground v.1.12,2013-05-21 15:40:00,
2013-05-21 08:50:00,56.7,56.7,29.89,West,275,9.0,9.0,100,0.00,,,0.00,Wunderground v.1.12,2013-05-21 15:50:00,
2013-05-21 09:00:00,56.7,56.7,29.89,WNW,283,9.0,12.0,100,0.00,,,0.00,Wunderground v.1.12,2013-05-21 16:00:00,
2013-05-21 09:10:00,57.5,57.5,29.89,NNE,26,8.0,8.0,100,0.00,,,0.00,Wunderground v.1.12,2013-05-21 16:10:00,
2013-05-21 09:20:00,57.6,57.6,29.89,WNW,298,8.0,9.0,100,0.00,,,0.00,Wunderground v.1.12,2013-05-21 16:20:00,
2013-05-21 09:30:00,57.6,57.6,29.89,West,269,9.0,11.0,100,0.00,,,0.00,Wunderground v.1.12,2013-05-21 16:30:00,
2013-05-21 09:40:00,58.1,58.1,29.90,WNW,284,7.0,7.0,100,0.00,,,0.00,Wunderground v.1.12,2013-05-21 16:40:00,
2013-05-21 09:50:00,58.9,58.9,29.90,WNW,286,5.0,9.0,100,0.00,,,0.00,Wunderground v.1.12,2013-05-21 16:50:00,
2013-05-21 10:00:00,59.0,59.0,29.90,SW,231,7.0,7.0,100,0.00,,,0.00,Wunderground v.1.12,2013-05-21 17:00:00,
2013-05-21 10:10:00,59.5,59.5,29.90,SW,226,7.0,7.0,100,0.00,,,0.00,Wunderground v.1.12,2013-05-21 17:10:00,
2013-05-21 10:20:00,59.9,59.9,29.90,WNW,284,6.0,6.0,100,0.00,,,0.00,Wunderground v.1.12,2013-05-21 17:20:00,
2013-05-21 10:30:00,60.5,60.5,29.90,WNW,303,7.0,11.0,100,0.00,,,0.00,Wunderground v.1.12,2013-05-21 17:30:00,
2013-05-21 10:40:00,60.7,60.7,29.91,SW,225,7.0,7.0,100,0.00,,,0.00,Wunderground v.1.12,2013-05-21 17:40:00,
2013-05-21 10:50:00,60.9,60.9,29.91,West,272,6.0,7.0,100,0.00,,,0.00,Wunderground v.1.12,2013-05-21 17:50:00,
2013-05-21 11:00:00,61.3,61.3,29.91,SW,231,7.0,8.0,100,0.00,,,0.00,Wunderground v.1.12,2013-05-21 18:00:00,
2013-05-21 11:10:00,62.3,62.3,29.91,North,5,5.0,5.0,100,0.00,,,0.00,Wunderground v.1.12,2013-05-21 18:10:00,
2013-05-21 11:20:00,61.6,61.6,29.91,WNW,303,8.0,14.0,100,0.00,,,0.00,Wunderground v.1.12,2013-05-21 18:20:00,
2013-05-21 11:30:00,61.6,61.6,29.91,West,277,9.0,9.0,100,0.00,,,0.00,Wunderground v.1.12,2013-05-21 18:30:00,
2013-05-21 11:40:00,61.5,61.5,29.91,West,261,9.0,9.0,100,0.00,,,0.00,Wunderground v.1.12,2013-05-21 18:40:00,
2013-05-21 11:50:00,61.3,61.3,29.91,West,267,11.0,11.0,100,0.00,,,0.00,Wunderground v.1.12,2013-05-21 18:50:00,
2013-05-21 12:00:00,61.5,61.5,29.91,NW,304,10.0,12.0,100,0.00,,,0.00,Wunderground v.1.12,2013-05-21 19:00:00,
2013-05-21 12:10:00,62.3,62.3,29.91,West,272,9.0,16.0,100,0.00,,,0.00,Wunderground v.1.12,2013-05-21 19:10:00,
2013-05-21 12:20:00,61.2,61.2,29.91,NW,316,12.0,12.0,100,0.00,,,0.00,Wunderground v.1.12,2013-05-21 19:20:00,
2013-05-21 12:30:00,61.2,61.2,29.91,WSW,257,12.0,12.0,100,0.00,,,0.00,Wunderground v.1.12,2013-05-21 19:30:00,
2013-05-21 12:40:00,61.8,61.8,29.91,NW,325,11.0,11.0,100,0.00,,,0.00,Wunderground v.1.12,2013-05-21 19:40:00,
2013-05-21 12:50:00,62.0,62.0,29.91,WNW,294,13.0,13.0,100,0.00,,,0.00,Wunderground v.1.12,2013-05-21 19:50:00,
2013-05-21 13:00:00,62.6,62.6,29.91,West,264,10.0,10.0,100,0.00,,,0.00,Wunderground v.1.12,2013-05-21 20:00:00,
2013-05-21 13:10:00,63.7,63.7,29.91,West,270,8.0,8.0,100,0.00,,,0.00,Wunderground v.1.12,2013-05-21 20:10:00,
2013-05-21 13:20:00,62.6,62.6,29.91,West,271,9.0,18.0,100,0.00,,,0.00,Wunderground v.1.12,2013-05-21 20:20:00,
2013-05-21 13:30:00,62.3,62.3,29.91,WSW,250,11.0,14.0,100,0.00,,,0.00,Wunderground v.1.12,2013-05-21 20:30:00,
2013-05-21 13:40:00,61.5,61.5,29.90,WNW,289,11.0,11.0,100,0.00,,,0.00,Wunderground v.1.12,2013-05-21 20:40:00,
2013-05-21 13:50:00,61.2,61.2,29.90,NW,309,13.0,13.0,100,0.00,,,0.00,Wunderground v.1.12,2013-05-21 20:50:00,
2013-05-21 14:00:00,62.1,62.1,29.90,West,267,10.0,10.0,100,0.00,,,0.00,Wunderground v.1.12,2013-05-21 21:00:00,
2013-05-21 14:10:00,62.7,62.7,29.90,NW,304,11.0,11.0,100,0.00,,,0.00,Wunderground v.1.12,2013-05-21 21:10:00,
2013-05-21 14:20:00,62.9,62.9,29.90,WSW,243,9.0,9.0,100,0.00,,,0.00,Wunderground v.1.12,2013-05-21 21:20:00,
2013-05-21 14:30:00,61.8,61.8,29.90,South,186,9.0,9.0,100,0.00,,,0.00,Wunderground v.1.12,2013-05-21 21:30:00,
2013-05-21 14:40:00,61.0,61.0,29.90,WSW,256,12.0,13.0,100,0.00,,,0.00,Wunderground v.1.12,2013-05-21 21:40:00,
2013-05-21 14:50:00,62.4,62.4,29.90,SSW,193,8.0,13.0,100,0.00,,,0.00,Wunderground v.1.12,2013-05-21 21:50:00,
2013-05-21 15:00:00,61.3,61.3,29.90,West,265,10.0,10.0,100,0.00,,,0.00,Wunderground v.1.12,2013-05-21 22:00:00,
2013-05-21 15:10:00,61.8,61.8,29.90,WSW,255,7.0,13.0,100,0.00,,,0.00,Wunderground v.1.12,2013-05-21 22:10:00,
2013-05-21 15:20:00,61.6,61.6,29.90,West,276,8.0,16.0,100,0.00,,,0.00,Wunderground v.1.12,2013-05-21 22:20:00,
2013-05-21 15:30:00,60.7,60.7,29.90,WNW,297,11.0,20.0,100,0.00,,,0.00,Wunderground v.1.12,2013-05-21 22:30:00,
2013-05-21 15:40:00,60.5,60.5,29.90,NW,306,10.0,12.0,100,0.00,,,0.00,Wunderground v.1.12,2013-05-21 22:40:00,
2013-05-21 15:50:00,60.2,60.2,29.88,West,277,11.0,11.0,100,0.00,,,0.00,Wunderground v.1.12,2013-05-21 22:50:00,
2013-05-21 16:00:00,59.8,59.8,29.88,SSW,212,12.0,19.0,100,0.00,,,0.00,Wunderground v.1.12,2013-05-21 23:00:00,
2013-05-21 16:10:00,58.9,58.9,29.89,NW,305,12.0,12.0,100,0.00,,,0.00,Wunderground v.1.12,2013-05-21 23:10:00,
2013-05-21 16:20:00,59.2,59.2,29.88,West,277,12.0,19.0,100,0.00,,,0.00,Wunderground v.1.12,2013-05-21 23:20:00,
2013-05-21 16:30:00,58.6,58.6,29.88,West,272,13.0,18.0,100,0.00,,,0.00,Wunderground v.1.12,2013-05-21 23:30:00,
2013-05-21 16:40:00,58.6,58.6,29.87,West,272,13.0,13.0,100,0.00,,,0.00,Wunderground v.1.12,2013-05-21 23:40:00,
2013-05-21 16:50:00,58.6,58.6,29.87,WNW,288,11.0,11.0,100,0.00,,,0.00,Wunderground v.1.12,2013-05-21 23:50:00,
2013-05-21 17:00:00,57.6,57.6,29.87,NW,304,13.0,13.0,100,0.00,,,0.00,Wunderground v.1.12,2013-05-22 00:00:00,
2013-05-21 17:10:00,58.1,58.1,29.87,WNW,298,11.0,11.0,100,0.00,,,0.00,Wunderground v.1.12,2013-05-22 00:10:00,
2013-05-21 17:20:00,58.0,58.0,29.87,West,281,11.0,11.0,100,0.00,,,0.00,Wunderground v.1.12,2013-05-22 00:20:00,
2013-05-21 17:30:00,58.4,58.4,29.87,NW,316,10.0,11.0,100,0.00,,,0.00,Wunderground v.1.12,2013-05-22 00:30:00,
2013-05-21 17:40:00,58.3,58.3,29.87,WNW,301,10.0,12.0,100,0.00,,,0.00,Wunderground v.1.12,2013-05-22 00:40:00,
2013-05-21 17:50:00,57.8,57.8,29.87,NW,309,10.0,11.0,100,0.00,,,0.00,Wunderground v.1.12,2013-05-22 00:50:00,
2013-05-21 18:00:00,56.5,56.5,29.87,WNW,296,12.0,12.0,100,0.00,,,0.00,Wunderground v.1.12,2013-05-22 01:00:00,
2013-05-21 18:10:00,56.6,56.6,29.86,WNW,288,11.0,14.0,100,0.00,,,0.00,Wunderground v.1.12,2013-05-22 01:10:00,
2013-05-21 18:20:00,55.6,55.6,29.86,WSW,239,13.0,19.0,100,0.00,,,0.00,Wunderground v.1.12,2013-05-22 01:20:00,
2013-05-21 18:30:00,55.3,55.3,29.86,WSW,238,13.0,13.0,100,0.00,,,0.00,Wunderground v.1.12,2013-05-22 01:30:00,
2013-05-21 18:40:00,55.0,55.0,29.87,West,273,13.0,13.0,100,0.00,,,0.00,Wunderground v.1.12,2013-05-22 01:40:00,
2013-05-21 18:50:00,54.8,54.8,29.87,WNW,297,11.0,18.0,100,0.00,,,0.00,Wunderground v.1.12,2013-05-22 01:50:00,
2013-05-21 19:00:00,54.4,54.4,29.87,NW,313,11.0,11.0,100,0.00,,,0.00,Wunderground v.1.12,2013-05-22 02:00:00,
2013-05-21 19:10:00,53.9,53.9,29.87,WSW,242,10.0,10.0,100,0.00,,,0.00,Wunderground v.1.12,2013-05-22 02:10:00,
2013-05-21 19:20:00,53.3,53.3,29.88,WNW,283,11.0,11.0,100,0.00,,,0.00,Wunderground v.1.12,2013-05-22 02:20:00,
2013-05-21 19:30:00,52.8,52.8,29.88,WNW,284,8.0,9.0,100,0.00,,,0.00,Wunderground v.1.12,2013-05-22 02:30:00,
2013-05-21 19:40:00,52.3,52.3,29.88,NW,304,9.0,16.0,100,0.00,,,0.00,Wunderground v.1.12,2013-05-22 02:40:00,
2013-05-21 19:50:00,51.9,51.9,29.88,WNW,291,10.0,10.0,100,0.00,,,0.00,Wunderground v.1.12,2013-05-22 02:50:00,
2013-05-21 20:00:00,51.6,51.6,29.88,WNW,288,9.0,9.0,100,0.00,,,0.00,Wunderground v.1.12,2013-05-22 03:00:00,
2013-05-21 20:10:00,51.1,51.1,29.89,WSW,255,10.0,10.0,100,0.00,,,0.00,Wunderground v.1.12,2013-05-22 03:10:00,
2013-05-21 20:20:00,50.8,50.8,29.89,WNW,299,10.0,10.0,100,0.00,,,0.00,Wunderground v.1.12,2013-05-22 03:20:00,
2013-05-21 20:30:00,50.5,50.5,29.89,WNW,284,9.0,9.0,100,0.00,,,0.00,Wunderground v.1.12,2013-05-22 03:30:00,
2013-05-21 20:40:00,50.4,50.4,29.89,West,275,10.0,11.0,100,0.00,,,0.00,Wunderground v.1.12,2013-05-22 03:40:00,
2013-05-21 20:50:00,50.1,50.1,29.89,West,280,8.0,9.0,100,0.00,,,0.00,Wunderground v.1.12,2013-05-22 03:50:00,
2013-05-21 21:00:00,49.9,49.9,29.89,WNW,301,9.0,9.0,100,0.00,,,0.00,Wunderground v.1.12,2013-05-22 04:00:00,
2013-05-21 21:03:00,49.9,49.9,29.89,WNW,292,9.0,18.0,100,0.00,,,-99.99,WeatherLink 5.8.2,2013-05-22 04:03:00,
2013-05-21 21:05:00,49.6,49.6,29.89,WNW,292,9.0,19.0,100,0.00,,,-99.99,WeatherLink 5.8.2,2013-05-22 04:05:00,
2013-05-21 21:10:00,49.6,49.6,29.89,WNW,297,9.0,9.0,100,0.00,,,0.00,Wunderground v.1.12,2013-05-22 04:10:00,
2013-05-21 21:20:00,49.5,49.5,29.90,West,269,7.0,10.0,100,0.00,,,0.00,Wunderground v.1.12,2013-05-22 04:20:00,
2013-05-21 21:23:00,49.5,49.5,29.90,WNW,292,8.0,16.0,100,0.00,,,-99.99,WeatherLink 5.8.2,2013-05-22 04:23:00,
2013-05-21 21:30:00,49.4,49.4,29.90,West,275,9.0,9.0,100,0.00,,,0.00,Wunderground v.1.12,2013-05-22 04:30:00,
2013-05-21 21:40:00,49.2,49.2,29.90,WNW,283,9.0,16.0,100,0.00,,,0.00,Wunderground v.1.12,2013-05-22 04:40:00,
2013-05-21 21:50:00,49.1,49.1,29.90,West,262,8.0,8.0,100,0.00,,,0.00,Wunderground v.1.12,2013-05-22 04:50:00,
2013-05-21 22:00:00,48.8,48.8,29.90,WNW,288,8.0,9.0,100,0.00,,,0.00,Wunderground v.1.12,2013-05-22 05:00:00,
2013-05-21 22:10:00,48.8,48.8,29.91,West,275,8.0,8.0,100,0.00,,,0.00,Wunderground v.1.12,2013-05-22 05:10:00,
2013-05-21 22:20:00,48.6,48.6,29.91,WNW,292,8.0,15.0,100,0.00,,,-99.99,WeatherLink 5.8.2,2013-05-22 05:20:00,
2013-05-21 22:30:00,48.6,48.6,29.91,WSW,254,8.0,8.0,100,0.00,,,0.00,Wunderground v.1.12,2013-05-22 05:30:00,
2013-05-21 22:40:00,48.5,48.5,29.90,WNW,302,9.0,9.0,100,0.00,,,0.00,Wunderground v.1.12,2013-05-22 05:40:00,
2013-05-21 22:50:00,48.5,48.5,29.90,WSW,250,8.0,8.0,100,0.00,,,0.00,Wunderground v.1.12,2013-05-22 05:50:00,
2013-05-21 23:00:00,48.3,48.3,29.90,NW,306,7.0,7.0,100,0.00,,,0.00,Wunderground v.1.12,2013-05-22 06:00:00,
2013-05-21 23:10:00,48.5,48.5,29.90,WSW,256,8.0,11.0,100,0.00,,,0.00,Wunderground v.1.12,2013-05-22 06:10:00,
2013-05-21 23:20:00,48.5,48.5,29.90,WNW,300,9.0,13.0,100,0.00,,,0.00,Wunderground v.1.12,2013-05-22 06:20:00,
2013-05-21 23:30:00,48.5,48.5,29.90,West,273,7.0,7.0,100,0.00,,,0.00,Wunderground v.1.12,2013-05-22 06:30:00,
2013-05-21 23:40:00,48.2,48.2,29.90,West,278,7.0,7.0,100,0.00,,,0.00,Wunderground v.1.12,2013-05-22 06:40:00,
2013-05-21 23:50:00,48.0,48.0,29.90,WNW,293,7.0,9.0,100,0.00,,,0.00,Wunderground v.1.12,2013-05-22 06:50:00,